Regional Weather Roundup
Issued by NWS Kansas City/Pleasant Hill, MO

Home | Current Version | Previous Version | Text Only | Print | Product List | Glossary On
Versions: 1 2 3 4 5 6 7 8 9 10 11 12 13 14 15 16 17 18 19 20 21 22 23 24 25 26 27 28 29 30 31 32 33 34 35 36 37 38 39 40 41 42 43 44 45 46 47 48 49 50
396
ASUS43 KEAX 231110
RWREAX

WEATHER ROUNDUP FOR EASTERN KANSAS AND NORTHWEST MISSOURI
NATIONAL WEATHER SERVICE KANSAS CITY/PLEASANT HILL MO
600 AM CDT SAT JUL 23 2016

KSZ040-057-103>105-MOZ028-029-037-043-231200-
...KANSAS CITY METROPOLITAN AREA...

CITY           SKY/WX    TMP DP  RH WIND       PRES   REMARKS
K.C. INTL      PTCLDY    78  72  81 S8G21     29.94F
K.C. DOWNTOWN  CLEAR     81  73  76 S6        29.93S
LEES SUMMIT    CLEAR     80  74  81 S8        29.96S
OLATHE - IXD   CLEAR     76  72  87 S8        29.96S
OLATHE - OJC   CLEAR     75  71  87 S6        29.96S
LAWRENCE       CLOUDY    76  73  91 SE6       29.93F

$$

MOZ001>008-011>017-020>025-030>033-038>040-044>046-053-054-231200-
...NORTHERN AND CENTRAL MISSOURI...

CITY           SKY/WX    TMP DP  RH WIND       PRES   REMARKS
ST. JOSEPH     CLOUDY    80  72  76 CALM      29.93S
MOSBY          SUNNY     77  75  94 CALM      29.94F
WHITEMAN AFB   CLEAR     76  76 100 S3        29.95S
CLINTON        PTCLDY    75  75 100 CALM      29.97S FOG
SEDALIA        CLEAR     76  74  93 S7        29.98S
WARSAW         NOT AVBL
CHILLICOTHE      N/A     77  75  93 S3        29.95S
KIRKSVILLE     CLEAR     76  74  93 S5        29.97S

$$

MOZ041-047>049-056>058-063>065-088>090-097-231200-
...EASTERN AND SOUTHERN MISSOURI...

CITY           SKY/WX    TMP DP  RH WIND       PRES   REMARKS
ST. LOUIS INTL MOCLDY    78  72  81 CALM      29.99S
SPIRIT OF STL  MOCLDY    73  72  96 CALM      29.97S
COLUMBIA       CLEAR     76  75  97 SE7       29.98S
JEFFERSON CITY CLEAR     75  74  96 SE5       29.97S
ROLLA          PTCLDY    73  69  87 S5        29.99F
OSAGE BEACH    CLEAR     76  74  93 CALM      30.00S
SPRINGFIELD    CLEAR     77  73  87 S3        30.01R FOG
BRANSON        CLEAR     75  73  94 CALM      30.03S
JOPLIN         CLEAR     77  72  84 S7        29.97F
WEST PLAINS    CLEAR     74  71  91 CALM      30.04S

$$

IAZ060-094-KSZ022-034>040-054-083-096-NEZ052-066-093-231200-
...KANSAS...SOUTHEAST NEBRASKA AND IOWA...

CITY           SKY/WX    TMP DP  RH WIND       PRES   REMARKS
TOPEKA         CLOUDY    82  70  66 VRB5      29.92S
MANHATTAN      PTCLDY    82  68  62 W8        29.92R
EMPORIA        CLEAR     76  70  82 S9        29.93F
CHANUTE        CLEAR     75  72  90 SE6       29.96S
WICHITA        PTCLDY    75  66  73 S8        29.93F
OMAHA          HVY RAIN  82  72  71 S14       29.87R
LINCOLN        CLOUDY    80  71  74 S10       29.88F
FALLS CITY     CLOUDY    82  72  71 S8        29.91S
LAMONI         CLOUDY    77  76  96 SW7       29.93S
DES MOINES     CLOUDY    79  76  90 S5        29.91S

$$





USA.gov is the U.S. government's official web portal to all federal, state and local government web resources and services.